CZ-3C DEB, 39346

Orbit data source: Space-Track

CZ-3C DEB, 39346 is space debris in HEO originally from a launch on Sun, 31 Oct 2010 UTC launched from the Xichang Space Center, China (XSC). Debris objects in space refer to the collection of defunct objects orbiting the Earth. Examples of debris include non-operational satellites, rocket bodies, and fragments generated from explosions, collisions, or faulty payload assembly.

Loading next visibility...
Identifier
39346, 2010-057L
Orbit
HEO
Country
Flag of CNCN / PRC
Related business
Manufacturer
CALT
Mission
Spacecraft
Bus & Motor
Unknown
Mass
Unknown
Launch date (UTC)
2010-10-31 (16 years ago)
Launch vehicle
Unknown
Launch site
Xichang Space Center, China (XSC)
Object type
Payload
Rocket body
Debris
Shape & HBR
Unknown shape, 0.5 m
Radar Cross Section
Medium (>0.1 m² and <1 m²)

Expand to show TLE details & history
Last TLE update: 1 day ago

TLE from 1 day ago
0 CZ-3C DEB
1 39346U 10057L   26263.64585443  .00000050  00000-0  31555-2 0  9992
2 39346  20.0436 136.0870 7201030  81.2521 347.2930  2.17980025103027
Epoch: 2026-09-20T15:30Z
TLE epoch observation values (Epoch: 2026-09-20T15:30:01.822Z)
Latitude
-0.00009°
Longitude
-95.80528°
Altitude
4,489.744 km
Speed
7.582 km/s
True Right ascension
09h 04m 57s
True Declination
0° 00' 00"
Sunlit
Object was in daylight at epoch
Visualization orbit readout
Latitude
Unknown
Longitude
Unknown
Altitude
Unknown
Speed
Unknown
Apparent Right ascension
Unknown
Apparent Declination
Unknown
Sunlit
N/A
Visualization observer readout
Local Sidereal Time
08:58:16
Azimuth
Unknown
Elevation
Unknown
Doppler factor
Unknown
Orbital elements
Apogee altitude
36,848.702 km
Perigee altitude
655.78 km
Semi-major axis
25,130.378 km
Eccentricity
0.7201
Inclination
20.0436°
RAAN
136.087°
Arg. of periapsis
81.2521°
True anomaly
278.63189°
Mean anomaly
347.293°
Eccentric anomaly
321.74974°
Mean motion
0.54481 °/min
Orbital period
660.78 mins
BSTAR
0.0031555
Loading maneuver chart data...
Computing Atmospheric mass density...
Loading historical data...
Loading historical data...
Loading historical data...
Loading historical data...
Loading historical data...
Loading historical data...
Loading historical data...

Documentation

Showing up to 5 results
|